PRISMA (MANGO)

Satellite information

Favourite Embed

Satellite Type and Status

PAYLOADIN ORBIT

Key statistics

Satellite PRISMA (MANGO) at a glance.

Uptime

5602

Days in orbit

Revolutions

≈ 14.6

Per day

Orbit

SSO

Sun Synchronous Orbit

Inclination

98.0

Latest

Satellite identification and parameters

Extended collection of information and parameters for PRISMA (MANGO).

Object identification

Identified? True

Debris? False

Object name: PRISMA (MANGO)

International designator: 2010-028B

Object number (NORAD): 36599

Object ID (CCSDS): 36599

Country: SWEDEN (SWED)

Current information (Y/N): Y

RCS size: MEDIUM

Orbital parameters

Period: 98.713 minutes

Inclination: 98.0339 deg

SMA: 7075.249 km

Apoapsis: 733.768 km

Periapsis: 660.461 km

RAAN: 131.5666 deg

Eccentricy: 0.00518051

Argument of periapsis: 250.47 deg

Mean anomaly: 109.0901 deg

Mean motion: 14.5878118 rev/day

Mean motion (dot): 0.0000098 rev/day2

B* drag term: 0.00021582527 1/REarth

Two-line elements (TLE)

Creation date: Oct. 16, 2025, 2:37 a.m.

Reference frame: TEME

Reference center: EARTH

Epoch: Oct. 15, 2025, 8:15 p.m. UTC

TLE line 0: 0 PRISMA (MANGO)

TLE line 1: 1 36599U 10028B 25288.84385673 .00000980 00000-0 21583-3 0 9991

TLE line 2: 2 36599 98.0339 131.5666 0051805 250.4700 109.0901 14.58781180813545

Live tracking on map

Real-time ground track for satellite PRISMA (MANGO).

In-orbit conjunctions

There are no conjunctions computed for PRISMA (MANGO), at the moment. Check back to stay up to date, as we update our databases every day.

Go to all conjunctions

Associated space launch

PRISMA (MANGO) was lifted into orbit during the mission ‘Dnepr 1 | Prisma-Mango, Prisma-Tango, Picard, BPA-1’, on board a Dnepr space rocket.

The launch took place on June 15, 2010, 2:42 p.m. from 370/13.

For more information about the launch, click the button.

Launch to space Dnepr 1 | Prisma-Mango, Prisma-Tango, Picard, BPA-1
Dnepr 1 | Prisma-Mango, Prisma-Tango, Picard, BPA-1

Agency: N/A

Status: Launch Successful

Launch date: June 15, 2010, 2:42 p.m. UTC

Rocket: Dnepr

Launch pad: 370/13

Location: Dombarovskiy, Russian Federation

...

Latest news about this satellite

There are no fresh news available about this satellite. Check back as we update our databases every day.


Newsletter sign-up

Weekly statistics, charts and insights to help you stay on top of the space industry.